Home   Weather   Camagüey   Past weeks

Flag for Cuba Past Weather in Camagüey, Cuba — Yesterday and Last 2 Weeks

Now
70 °F

Passing clouds.


Feels Like: 70 °F
Forecast: 74 / 91 °F
Wind: 5 mph from East

Location: Camaguey Aeropuerto

Current Time: Sep 28, 2016 at 8:05:02 AM

Latest Report: Sep 28, 2016 at 6:51 AM


Visibility: 6 mi

Pressure: 30.04 "Hg

Humidity: 94%

Dew Point: 68 °F

Location of CamagüeyLocation

Past Weather in Camagüey — Graph

°F

Camagüey Temperature Yesterday

Maximum temperature yesterday: 91 °F (at 1:50 PM)
Minimum temperature yesterday: 72 °F (at 7:51 PM)
Average temperature yesterday: 79 °F

High & Low Weather Summary for the Past Weeks

 TemperatureHumidityPressure
High91 °F (Sep 15, 1:54 PM)100% (Sep 22, 5:50 AM)30.07 "Hg (Sep 22, 5:50 AM)
Low70 °F (Sep 20, 8:54 PM)44% (Sep 20, 2:50 PM)29.89 "Hg (Sep 19, 4:50 PM)
Average80 °F79%29.99 "Hg
* Reported Sep 13 5:52 AM — Sep 28 5:50 AM, Camagüey, Weather by CustomWeather, © 2016

Note: Actual official high and low records may vary slightly from our data, if they occured in-between our weather recording intervals... More about our weather records

Advertising

Camagüey Weather History for the Previous 24 Hours

Scroll right to see more
 ConditionsComfort  
Time TempWeatherWind HumidityBarometerVisibility
5:50 AM
Wed, Sep 28
72 °FPassing clouds.5 mph83%30.01 "Hg5 mi
4:50 AM72 °FPassing clouds.3 mph83%30.01 "Hg6 mi
3:50 AM72 °FPassing clouds.5 mph88%30.01 "Hg6 mi
2:50 AM72 °FPassing clouds.3 mph88%30.01 "Hg6 mi
1:50 AM72 °FPassing clouds.2 mph88%30.01 "Hg6 mi
12:51 AM72 °FPassing clouds.2 mph88%30.04 "Hg6 mi
11:50 PM
Tue, Sep 27
72 °FPassing clouds.1 mph88%30.04 "Hg6 mi
10:50 PM72 °FPassing clouds.3 mph88%30.04 "Hg6 mi
9:51 PM72 °FThunderstorms. Passing clouds.12 mph88%30.07 "Hg6 mi
8:50 PM72 °FThunderstorms. Passing clouds.13 mph88%30.01 "Hg6 mi
7:51 PM72 °FThunderstorms. Passing clouds.14 mph94%30.01 "Hg4 mi
6:50 PM73 °FStrong thunderstorms. Overcast.17 mph83%29.95 "Hg1 mi
5:51 PM88 °FBroken clouds.3 mph59%29.92 "Hg6 mi
4:51 PM90 °FScattered clouds.6 mph49%29.89 "Hg6 mi
3:50 PM91 °FScattered clouds.7 mph44%29.92 "Hg6 mi
2:50 PM90 °FScattered clouds.7 mph55%29.92 "Hg6 mi
1:50 PM91 °FScattered clouds.9 mph49%29.95 "Hg6 mi
12:50 PM90 °FScattered clouds.8 mph52%29.98 "Hg6 mi
11:50 AM88 °FPassing clouds.12 mph59%30.01 "Hg6 mi
10:51 AM86 °FPassing clouds.8 mph62%30.01 "Hg6 mi
9:51 AM82 °FPassing clouds.7 mph74%30.01 "Hg6 mi
8:51 AM81 °FPassing clouds.5 mph79%29.98 "Hg6 mi
Weather by CustomWeather, © 2016

See weather overviewHow to use our weather pages